SCP
0 0 0 0 0 0 0 0 0 0 0 0 0 0 0 0 0 0 0 0 0 0 0 0 0 0 0 0 0 0 0 0 0 0 0 0 0 0 0 0 0 0 0
0 0 0 0 0 0 0 0 0 0 0 0 0 0 0 0 0 0 0 0 0 0 0 0 0 0 0 0 0 0 0 0 0 0 0 0 0 0 0 0 0 0 0
0 0 0 0 0 0 0 0 0 0 0 0 0 0 0 0 0 0 0 0 0 0 0 0 0 0 0 0 0 0 0 0 0 0 0 0 0 0 0 0 0 0 0
0 0 0 0 0 0 0 0 0 0 0 0 0 0 0 0 0 0 0 0 0 0 0 0 0 0 0 0 0 0 0 0 0 0 0 0 0 0 0 0 0 0 0
0 0 0 0 0 0 0 0 0 0 0 0 0 0 0 0 0 0 0 0 0 0 0 0 0 0 0 0 0 0 0 0 0 0 0 0 0 0 0 0 0 0 0
0 0 0 0 0 0 0 0 0 0 0 0 0 0 0 0 0 0 0 0 0 0 0 0 0 0 0 0 0 0 0 0 0 0 0 0 0 0 0 0 0 0 0
0 0 0 0 0 0 0 0 0 0 0 0 0 0 0 0 0 0 0 0 0 0 0 0 0 0 0 0 0 0 0 0 0 0 0 0 0 0 0 0 0 0 0
0 0 0 0 0 0 0 0 0 0 0 0 0 0 0 0 0 0 0 0 0 0 0 0 0 0 0 0 0 0 0 0 0 0 0 0 0 0 0 0 0 0 0
0 0 0 0 0 0 0 0 0 0 0 0 0 0 0 0 0 0 0 0 0 0 0 0 0 0 0 0 0 0 0 0 0 0 0 0 0 0 0 0 0 0 0
0 0 0 0 0 0 0 0 0 0 0 0 0 0 0 0 0 0 0 0 0 0 0 0 0 0 0 0 0 0 0 0 0 0 0 0 0 0 0 0 0 0 0
0 0 0 0 0 0 0 0 0 0 0 0 0 0 0 0 0 0 0 0 0 0 0 0 0 0 0 0 0 0 0 0 0 0 0 0 0 0 0 0 0 0 0
0 0 0 0 0 0 0 0 0 0 0 0 0 0 0 0 0 0 0 0 0 0 0 0 0 0 0 0 0 0 0 0 0 0 0 0 0 0 0 0 0 0 0
0 0 0 0 0 0 0 0 0 0 0 0 0 0 0 0 0 0 0 0 0 0 0 0 0 0 0 0 0 0 0 0 0 0 0 0 0 0 0 0 0 0 0
0 0 0 0 0 0 0 0 0 0 0 0 0 0 0 0 0 0 0 0 0 0 0 0 0 0 0 0 0 0 0 0 0 0 0 0 0 0 0 0 0 0 0
0 0 0 0 0 0 0 0 0 0 0 0 0 0 0 0 0 0 0 0 0 0 0 0 0 0 0 0 0 0 0 0 0 0 0 0 0 0 0 0 0 0 0
0 0 0 0 0 0 0 0 0 0 0 0 0 0 0 0 0 0 0 0 0 0 0 0 0 0 0 0 0 0 0 0 0 0 0 0 0 0 0 0 0 0 0
0 0 0 0 0 0 0 0 0 0 0 0 0 0 0 0 0 0 0 0 0 0 0 0 0 0 0 0 0 0 0 0 0 0 0 0 0 0 0 0 0 0 0
0 0 0 0 0 0 0 0 0 0 0 0 0 0 0 0 0 0 0 0 0 0 0 0 0 0 0 0 0 0 0 0 0 0 0 0 0 0 0 0 0 0 0
0 0 0 0 0 0 0 0 0 0 0 0 0 0 0 0 0 0 0 0 0 0 0 0 0 0 0 0 0 0 0 0 0 0 0 0 0 0 0 0 0 0 0
0 0 0 0 0 0 0 0 0 0 0 0 0 0 0 0 0 0 0 0 0 0 0 0 0 0 0 0 0 0 0 0 0 0 0 0 0 0 0 0 0 0 0
0 0 0 0 0 0 0 0 0 0 0 0 0 0 0 0 0 0 0 0 0 0 0 0 0 0 0 0 0 0 0 0 0 0 0 0 0 0 0 0 0 0 0
0 0 0 0 0 0 0 0 0 0 0 0 0 0 0 0 0 0 0 0 0 0 0 0 0 0 0 0 0 0 0 0 0 0 0 0 0 0 0 0 0 0 0
0 0 0 0 0 0 0 0 0 0 0 0 0 0 0 0 0 0 0 0 0 0 0 0 0 0 0 0 0 0 0 0 0 0 0 0 0 0 0 0 0 0 0
0 0 0 0 0 0 0 0 0 0 0 0 0 0 0 0 0 0 0 0 0 0 0 0 0 0 0 0 0 0 0 0 0 0 0 0 0 0 0 0 0 0 0
0 0 0 0 0 0 0 0 0 0 0 0 0 0 0 0 0 0 0 0 0 0 0 0 0 0 0 0 0 0 0 0 0 0 0 0 0 0 0 0 0 0 0
0 0 0 0 0 0 0 0 0 0 0 0 0 0 0 0 0 0 0 0 0 0 0 0 0 0 0 0 0 0 0 0 0 0 0 0 0 0 0 0 0 0 0
Wind_Speed
11 7 5 5 5 5 6 7 9 11 11 10 9 8 7 7 6 6 9 10 9 8 7 7 6 6 6 5 5 3 5 5 5 4 5 4 2 2 1 1 1 2 5
8 6 6 5 6 6 7 8 10 10 10 8 6 6 7 7 6 6 8 9 9 7 7 8 6 5 5 6 6 5 3 4 5 3 3 6 7 5 3 3 2 4 5
12 9 8 7 6 7 8 9 10 10 10 11 11 11 8 6 5 6 6 7 8 8 8 8 7 6 5 5 5 5 4 3 3 3 3 3 4 5 5 4 3 4 4
13 10 9 8 8 7 7 9 10 11 12 13 14 16 11 8 6 5 6 8 7 7 8 8 7 6 5 5 4 4 3 3 2 2 2 1 2 3 6 5 3 4 6
14 13 12 11 8 8 8 9 11 11 11 10 13 13 11 9 9 8 10 8 6 7 7 7 6 6 5 5 5 4 3 2 1 1 1 2 2 1 3 7 6 6 4
14 12 10 10 8 8 9 10 12 11 9 10 11 14 17 16 14 10 9 6 5 5 7 7 6 5 4 4 4 3 3 2 1 1 0 1 1 2 3 6 10 10 5
12 13 15 14 14 13 12 11 13 12 10 11 11 13 16 15 14 11 9 7 5 4 5 5 5 4 4 4 3 3 2 1 1 1 1 2 2 3 3 6 10 11 7
12 15 18 17 16 16 14 14 14 13 11 12 12 11 12 9 8 8 8 7 5 5 5 5 5 4 4 3 3 2 2 1 1 2 3 3 4 3 3 4 8 13 7
13 15 16 16 17 16 15 15 15 14 12 13 13 11 10 10 10 9 8 7 6 5 6 5 4 3 3 3 2 1 2 2 2 3 4 4 4 4 4 4 5 7 14
12 14 15 15 14 13 13 13 14 15 14 13 12 11 10 11 10 9 9 7 6 5 5 5 4 3 3 3 2 2 2 3 3 3 5 5 5 5 5 5 6 7 11
15 15 14 13 14 14 14 14 14 15 13 12 12 12 11 10 10 9 8 7 6 5 5 4 3 2 2 3 2 3 4 4 5 5 5 7 7 5 5 6 6 7 8
14 14 15 15 15 15 14 14 14 14 12 12 12 12 11 10 10 9 7 7 6 5 4 3 3 2 3 3 3 4 5 5 6 6 6 7 7 7 6 6 8 8 9
15 14 14 14 14 14 14 13 13 13 12 12 13 12 10 10 9 8 7 6 6 5 4 3 3 2 3 4 4 5 6 6 6 6 6 7 7 8 8 8 9 9 10
15 15 14 13 13 13 13 13 12 12 12 12 12 11 9 9 8 7 7 6 5 5 3 2 2 2 4 4 5 5 5 5 5 5 6 7 8 9 10 9 9 9 10
14 14 14 13 13 13 12 12 12 11 12 12 11 10 9 8 8 7 6 5 5 4 3 2 2 3 3 4 6 5 5 4 5 6 7 8 13 17 14 13 11 11 11
14 14 14 14 14 14 14 13 12 11 11 12 11 10 9 8 7 7 6 5 4 3 3 3 3 4 4 11 14 11 4 4 5 8 8 9 11 15 21 25 24 22 17
14 15 15 14 14 13 14 14 12 11 11 11 10 9 9 8 7 6 5 4 3 2 2 3 3 4 7 13 15 16 8 5 6 8 9 10 11 17 11 18 23 19 23
13 13 13 12 12 11 13 13 12 12 11 11 9 8 8 8 6 6 5 3 2 2 2 3 4 5 7 14 16 18 7 6 7 8 9 10 10 12 17 15 13 10 11
11 11 12 13 14 14 14 15 12 11 11 10 9 8 8 8 6 5 4 2 2 2 2 3 4 5 8 14 17 18 6 6 8 9 9 11 10 20 27 17 14 13 11
12 13 14 15 15 14 14 15 13 12 11 10 9 8 7 7 6 5 3 2 1 2 3 4 4 5 6 13 17 19 5 7 7 7 7 15 19 24 27 15 12 14 15
14 15 15 14 13 14 15 15 13 11 10 10 10 8 7 7 6 4 2 2 2 3 4 5 5 6 8 12 17 19 8 7 8 8 7 8 23 26 26 22 11 17 19
14 14 14 12 11 12 15 14 12 11 11 11 10 8 6 5 5 4 3 2 3 3 4 5 6 5 6 10 15 20 18 18 10 10 9 11 25 26 25 18 19 25 20
12 12 15 14 10 9 12 15 12 12 12 11 9 7 6 5 4 3 3 2 2 3 4 4 5 6 5 8 17 19 21 22 13 10 19 23 25 22 15 18 23 18 10
12 13 15 15 11 9 11 13 12 11 12 10 8 6 5 4 3 2 2 2 2 3 4 5 5 6 6 6 7 7 9 14 12 10 14 20 20 16 17 16 13 9 9
10 11 13 14 13 12 12 11 11 11 11 8 6 5 4 3 2 2 1 2 3 4 6 4 4 7 7 10 20 15 10 10 11 13 6 7 9 9 9 9 9 9 10
11 12 13 14 12 12 11 9 8 10 10 7 5 4 3 2 2 2 3 5 6 10 12 12 12 10 14 21 20 21 21 21 21 13 8 9 9 10 11 12 12 11 10
Wind_Direction
252 248 229 203 181 171 161 154 146 147 145 142 136 127 117 109 97 92 98 97 97 94 95 94 79 71 71 59 44 44 34 17 358 0 340 337 351 349 53 27 2 17 20
249 232 207 188 184 174 162 151 150 151 149 142 127 116 116 105 96 93 90 94 98 97 95 93 87 78 77 61 46 44 44 19 21 28 6 347 339 339 345 346 356 12 12
234 224 201 194 183 178 169 156 149 143 135 129 119 114 105 103 101 98 89 87 93 93 95 91 88 78 76 72 60 51 61 31 11 38 58 20 313 309 314 321 343 357 351
222 212 193 188 185 178 159 145 141 139 139 139 141 142 140 134 125 121 111 97 92 93 89 87 85 80 76 73 62 61 60 66 26 2 29 218 236 293 310 302 306 321 316
214 204 191 183 170 155 148 141 136 137 141 142 145 135 124 118 121 117 109 100 88 83 84 83 82 79 77 75 68 63 59 69 77 17 339 331 313 253 276 293 304 302 280
209 195 171 152 145 141 139 140 138 136 137 138 139 136 133 134 132 127 119 108 96 81 79 81 79 78 76 72 68 66 62 60 60 41 260 248 286 289 277 286 303 304 291
192 172 160 158 155 152 149 145 142 137 134 132 130 135 135 136 135 132 127 120 106 91 81 82 79 74 75 74 65 55 38 39 24 302 252 235 237 242 260 286 301 300 293
184 174 169 163 160 156 152 148 143 137 133 129 125 124 124 121 121 120 119 113 109 107 99 90 83 76 68 62 49 35 354 357 309 281 261 251 252 247 254 271 302 310 299
179 172 165 161 157 155 153 149 142 135 130 127 123 118 116 117 116 111 105 104 106 106 97 90 82 68 56 42 26 356 326 312 280 270 263 254 254 251 253 256 265 290 304
167 162 159 154 150 145 139 136 137 133 128 126 125 120 114 114 115 111 107 104 99 97 98 87 75 56 37 18 2 326 310 303 285 266 264 262 259 258 256 255 256 256 278
162 156 149 141 135 133 134 133 131 128 126 122 119 118 114 112 109 106 106 106 102 99 94 87 71 46 22 357 342 318 305 300 292 288 281 275 273 269 264 260 260 262 266
147 142 139 136 135 135 134 132 132 128 125 122 119 116 115 111 108 106 106 106 102 96 94 85 66 33 4 338 324 310 308 297 293 291 290 286 288 278 274 270 268 269 266
133 132 134 137 137 135 133 131 129 126 123 121 119 117 115 112 111 111 109 106 103 95 84 75 53 12 338 320 306 293 290 287 286 289 289 287 287 285 282 277 276 275 281
137 137 136 134 133 132 132 129 125 125 124 121 120 119 118 117 116 114 109 105 103 95 79 62 32 350 321 304 292 286 285 287 289 289 285 284 283 283 284 286 280 287 291
142 144 141 137 133 130 128 127 125 125 125 122 120 120 118 115 113 110 106 101 94 88 74 47 10 342 316 302 304 295 292 293 293 290 284 284 299 304 305 307 307 302 296
151 148 143 141 141 139 136 131 128 127 124 122 122 123 120 116 113 111 107 99 88 73 49 23 352 334 326 321 325 326 303 290 291 295 292 291 296 300 311 311 307 304 305
157 155 153 150 146 143 140 136 132 127 122 122 125 125 122 116 114 111 102 92 82 55 21 354 338 321 313 326 329 324 322 298 290 291 294 301 303 310 295 295 301 304 304
156 152 146 139 133 130 129 125 126 125 124 125 127 126 122 117 112 104 95 85 74 37 357 329 323 317 318 331 327 323 325 294 284 284 287 290 293 297 305 304 307 300 298
146 142 138 136 134 135 134 129 126 126 127 130 131 128 124 120 113 103 92 81 52 7 332 318 323 320 316 327 324 326 305 292 289 287 290 300 299 305 313 317 311 308 305
132 132 131 132 134 137 137 132 134 134 136 135 128 121 118 116 112 106 96 73 35 343 331 324 320 312 305 317 325 325 301 299 298 293 288 306 312 313 320 320 315 314 311
128 130 132 136 139 141 138 134 135 136 131 124 117 112 110 112 110 101 87 58 20 356 342 324 314 306 307 319 324 322 320 307 309 311 308 302 315 319 323 325 317 309 315
125 128 127 127 131 138 135 131 129 125 122 118 113 110 106 102 101 93 73 45 20 354 335 320 313 300 300 314 318 322 323 323 316 312 309 310 319 325 326 325 316 319 325
118 120 122 120 118 125 131 128 127 126 120 114 112 110 102 91 89 85 58 24 6 343 318 307 306 307 302 306 318 320 323 324 321 310 315 320 324 327 324 317 320 326 319
114 120 120 119 113 107 111 120 124 121 118 116 114 111 104 90 68 61 51 14 335 318 308 307 306 306 304 301 298 300 314 321 320 313 316 324 324 322 317 318 319 313 307
111 116 119 116 111 108 108 113 118 118 114 112 111 105 96 90 63 31 349 318 270 279 308 298 297 312 310 312 324 328 323 323 320 325 323 320 319 320 318 316 314 313 314
108 107 108 110 109 108 106 106 111 116 117 113 108 101 94 78 55 8 333 322 319 323 325 325 322 315 315 322 328 329 329 331 331 334 324 319 319 318 318 317 316 315 313